Lid_Strength_Index
1 1 1 1 2 2 2 3 3 3 3 3 3 3 2 2 1 3 4 2 4 6 6 5 6 7 7 7 11 8 9 9 12 13 13 15 16 13 14 12 13 14 15 17 19 20 18 10 11 13 11 10 9 9
1 2 1 2 2 3 3 3 3 3 3 3 3 2 2 2 2 2 5 2 1 5 6 4 5 4 4 4 6 7 8 9 8 11 12 14 15 15 14 16 11 14 12 14 13 14 10 10 11 10 10 10 9 8
3 3 3 3 3 3 4 4 3 3 3 3 3 3 2 2 2 2 4 2 2 5 6 6 6 4 3 4 3 8 8 6 7 7 10 11 14 13 15 14 13 11 10 13 12 11 10 10 9 9 8 9 8 8
4 4 4 4 4 4 4 4 4 4 3 3 3 3 3 2 2 2 4 3 2 5 9 7 3 4 2 3 4 4 5 5 6 8 12 12 14 10 14 11 12 10 10 12 12 11 10 9 10 10 9 9 9 10
4 4 4 4 4 3 4 4 4 4 3 3 3 3 2 2 0 2 3 1 1 5 9 9 6 3 2 3 4 4 5 6 8 10 13 13 11 11 13 13 16 10 11 12 12 9 10 10 10 10 10 11 10 11
3 3 3 3 3 3 3 4 4 4 4 3 3 2 2 1 0 3 5 2 2 2 7 11 7 7 4 4 4 5 5 7 8 10 12 10 9 11 14 15 10 9 9 8 9 8 11 11 11 11 11 11 11 11
3 3 3 3 3 3 3 3 3 3 3 2 2 2 1 1 2 4 6 3 2 2 6 10 10 7 4 4 5 5 7 8 8 9 13 11 11 11 16 16 11 10 10 9 10 10 12 11 12 12 12 12 12 12
2 3 3 3 3 3 3 3 3 2 2 2 2 1 1 0 1 4 1 2 2 4 5 10 10 9 5 8 9 7 9 9 9 10 11 13 11 14 13 12 11 11 11 11 12 11 11 12 13 13 13 13 13 14
2 2 2 2 1 1 1 2 2 2 2 1 1 1 1 3 6 5 1 2 2 5 10 11 12 14 7 9 9 9 8 13 10 13 12 11 14 13 12 12 11 11 11 13 12 12 12 14 14 13 13 14 14 14
1 1 1 1 1 1 1 1 1 1 0 0 1 4 7 5 1 1 3 7 6 6 6 10 8 11 9 12 12 13 13 13 13 12 10 13 13 12 11 10 10 11 12 12 14 14 14 14 14 14 14 14 14 14
1 1 1 1 0 0 1 1 1 0 1 4 7 7 3 1 3 5 9 9 9 10 9 9 10 11 8 12 13 13 14 14 14 13 13 14 15 12 11 10 10 11 11 11 11 11 11 12 14 15 15 14 14 14
0 0 0 0 0 0 0 0 0 2 4 4 3 2 3 5 7 11 10 10 10 12 10 10 9 10 11 9 12 13 15 14 15 12 14 15 14 12 12 12 11 11 11 11 11 12 12 13 13 14 15 15 15 16
3 3 3 3 3 2 2 2 1 1 2 3 4 7 7 9 12 17 14 12 12 11 10 11 13 12 13 12 14 15 16 16 13 14 15 14 12 11 11 11 11 10 10 11 11 12 13 14 14 15 16 16 16 17
4 4 4 3 3 3 3 3 3 3 5 8 11 13 11 12 12 12 12 12 12 12 12 12 13 13 13 14 14 14 14 14 16 17 17 14 12 11 11 11 11 12 13 13 13 14 14 15 16 16 16 17 17 18
4 5 5 5 4 3 3 4 4 5 9 12 11 14 14 12 12 12 13 13 13 12 13 13 13 12 14 14 14 14 15 17 18 19 15 13 12 12 13 13 13 14 14 14 14 15 16 16 17 17 17 17 17 18
5 5 6 5 4 4 5 6 7 8 11 13 14 14 13 13 14 14 13 14 12 13 13 12 14 14 15 14 15 17 17 18 16 15 14 13 13 13 13 14 14 14 14 14 15 16 16 17 17 17 18 19 19 20
6 8 5 6 5 5 6 8 11 13 13 14 15 14 14 14 15 15 14 15 12 13 14 14 15 15 14 16 17 16 18 16 15 14 14 13 14 14 14 14 14 14 14 15 15 15 16 17 17 18 19 18 18 19
8 6 5 6 6 7 8 10 13 13 15 14 16 15 16 16 16 16 15 14 13 13 14 16 15 18 20 19 19 16 15 14 14 14 14 13 13 13 13 14 14 14 15 15 16 16 17 17 17 18 17 18 18 18
8 7 6 6 7 9 12 12 12 15 15 14 14 14 15 16 15 15 15 14 14 14 15 17 22 22 22 19 19 18 15 14 15 14 14 13 13 13 14 14 15 15 16 16 17 17 17 17 17 17 17 18 19 20
8 8 7 6 7 11 13 13 11 13 15 16 15 17 17 17 16 16 16 15 16 16 19 21 22 20 20 18 17 16 13 13 14 16 17 16 15 15 16 16 17 17 17 18 18 18 18 19 18 19 19 19 19 19
9 10 9 8 10 11 13 13 13 13 13 15 14 15 17 17 19 19 19 16 19 19 21 20 20 19 18 18 17 16 17 16 17 16 17 19 17 17 18 18 18 18 19 19 20 20 20 20 19 19 20 20 19 18
11 10 13 12 13 13 13 13 13 13 13 13 14 14 17 18 19 19 18 21 21 20 19 19 19 19 19 19 19 18 17 17 18 18 18 18 20 20 19 19 19 20 20 21 20 21 20 19 19 19 20 20 18 19
11 12 15 15 16 15 16 13 15 14 16 16 15 16 18 18 18 17 22 21 21 19 19 18 19 19 19 19 18 18 18 19 20 20 20 21 21 21 21 21 20 21 22 21 20 20 21 20 21 21 21 21 21 22
12 17 19 20 18 22 18 17 14 15 15 16 17 18 18 18 18 21 24 23 21 20 20 20 19 20 20 20 22 21 19 19 20 20 20 21 23 23 22 23 22 22 21 21 22 23 23 23 23 23 25 28 27 28
16 17 18 21 19 20 22 21 19 18 18 18 18 18 19 18 22 23 24 23 22 22 21 20 21 21 22 22 21 21 20 20 22 23 22 20 22 22 23 22 22 22 21 23 26 26 27 30 31 32 30 33 27 30
17 16 18 19 18 19 19 22 22 20 21 21 20 21 23 24 26 25 23 22 22 22 22 21 22 22 23 22 22 22 22 20 21 24 23 21 21 23 23 24 24 23 23 28 29 31 30 31 32 30 32 30 30 34
19 18 16 14 15 16 22 22 20 22 24 23 22 26 26 29 28 22 20 20 21 21 21 21 20 21 22 22 21 21 20 20 21 21 21 21 22 22 23 25 25 23 22 25 30 30 29 30 32 32 33 36 35 33
14 17 22 22 22 19 24 25 23 23 22 19 24 29 30 29 24 19 18 18 19 19 20 21 21 21 21 21 21 21 21 22 21 22 22 23 23 24 25 25 26 22 29 31 31 32 30 28 29 30 32 32 30 32
20 21 20 24 24 23 21 23 23 21 19 21 29 28 25 21 21 19 18 17 17 19 21 23 24 25 23 23 25 25 26 28 28 30 34 34 33 29 29 32 33 32 33 31 26 22 21 25 25 29 30 32 31 33
21 20 22 26 25 24 26 22 25 24 19 21 19 19 21 21 19 18 19 20 21 24 26 27 30 30 33 30 31 27 28 32 32 31 33 33 31 30 36 36 34 35 37 37 36 32 27 32 30 33 33 33 34 35
21 21 21 22 22 24 25 24 22 22 26 24 27 26 25 23 22 19 20 24 27 30 27 29 29 35 31 33 34 33 31 30 32 31 31 31 32 34 34 35 36 38 38 37 38 37 37 37 39 39 38 35 34 34
23 23 22 22 21 19 20 24 27 26 28 28 27 31 29 29 29 25 23 24 25 27 30 33 30 28 32 33 35 34 30 32 32 32 30 31 33 33 34 34 36 36 37 37 38 38 37 37 38 39 39 38 38 36
26 28 26 24 21 21 19 19 21 22 25 25 24 26 30 29 28 25 23 30 28 29 30 30 29 29 29 30 31 33 32 34 33 26 26 27 30 30 34 37 37 37 35 37 38 38 36 36 37 38 39 40 38 38